[[{"header":{"parameterUnit":"m.s-1","parameterCategory":1,"la1":30.2991,"la2":30.254,"lo1":-89.0895,"lo2":-89.0444,"dy":0.0017,"dx":0.0017,"nx":28,"ny":28,"refTime":"2023-09-26T03:00:00:Z","depth":0,"parameterNumber":2,"parameterNumberName":"U-component_of_WINDS"},"data":[0,0,0,0,0,0,0,0,0,0,0,0,0,0,0,0,0,0,0,0,0,0,0,0,0,0,0,0,0,0,0,0,0,0,0,0,0,0,0,0,0,0,0,0,0,0,0,0,0,0,0,0,0,0,0,0,0,0,-4.2698,-4.2699,0,-4.2791,-4.2792,-4.2793,-4.2689,-4.2685,-4.2681,-4.2677,-4.2772,-4.2778,-4.2785,0,0,0,0,0,0,0,0,0,0,0,0,0,-4.2428,-4.2434,-4.2698,-4.2699,-4.27,-4.2791,-4.2792,-4.2794,-4.269,-4.2685,-4.268,-4.2675,-4.277,-4.2778,-4.2785,0,0,0,0,0,0,0,0,0,0,0,0,0,-4.2536,-4.2436,-4.2698,-4.2659,-4.2657,-4.2791,-4.2792,-4.2794,-4.2691,-4.2685,-4.2679,-4.2673,-4.2768,-4.2777,-4.2786,-4.2962,0,0,-4.2815,-4.2819,0,0,0,0,0,0,0,0,-4.253,-4.2546,-4.2664,-4.2662,-4.266,-4.2722,-4.2732,-4.285,-4.2692,-4.2678,-4.2677,-4.267,-4.276,-4.277,-4.2801,-4.2967,-4.2971,-4.2815,-4.2821,-4.2825,-4.2828,0,0,0,0,0,0,0,-4.2523,-4.2541,-4.2735,-4.2666,-4.2663,-4.2637,-4.2646,-4.2754,-4.2751,-4.2678,-4.2671,-4.2684,-4.2758,-4.2792,-4.2802,-4.2972,-4.2815,-4.2823,-4.2829,-4.2833,-4.3286,-4.3292,0,0,0,0,0,0,-4.252,-4.2536,-4.2732,-4.2737,-4.2579,-4.2647,-4.2656,-4.2708,-4.275,-4.275,-4.2689,-4.2678,-4.2779,-4.2791,-4.2805,-4.3012,-4.2825,-4.2834,-4.2839,-4.328,-4.3287,-4.3294,0,0,0,0,0,0,-4.2514,-4.2538,-4.2728,-4.2635,-4.2657,-4.2658,-4.2717,-4.2713,-4.2746,-4.2757,-4.2756,-4.2724,-4.2775,-4.2792,-4.2924,-4.3014,-4.2838,-4.2846,-4.3272,-4.3282,-4.3291,-4.3429,0,0,0,0,0,0,-4.2507,-4.2537,-4.2604,-4.2637,-4.2662,-4.2846,-4.2722,-4.2719,-4.2763,-4.2751,-4.279,-4.2791,-4.2771,-4.291,-4.2933,-4.3024,-4.2854,-4.3264,-4.3277,-4.3288,-4.3417,-4.3442,-4.3465,0,0,0,0,0,-4.2498,-4.264,-4.2608,-4.2632,-4.2746,-4.2851,-4.2866,-4.284,-4.2771,-4.2838,-4.2845,-4.2789,-4.3001,-4.2925,-4.2949,-4.3044,-4.3258,-4.3273,-4.3287,-4.3406,-4.3437,-4.3464,0,0,0,0,0,0,-4.2617,-4.2643,-4.2608,-4.2765,-4.2807,-4.2833,-4.2917,-4.2875,-4.2937,-4.2923,-4.2889,-4.2899,-4.3038,-4.3055,-4.2969,-4.3216,-4.3118,-4.3138,-4.32,-4.323,-4.3254,-4.3246,-4.2862,0,0,0,0,0,-4.2662,-4.2745,-4.2763,-4.29,-4.2923,-4.2917,-4.2962,-4.2939,-4.298,-4.2997,-4.3013,-4.3056,-4.3131,-4.3182,-4.3253,-4.3419,-4.3425,-4.3497,-4.3521,-4.354,-4.3557,-4.3645,-4.3676,-4.3342,-4.3342,-4.3342,0,0,-4.2755,-4.2779,-4.2834,-4.2925,-4.2954,-4.304,-4.2932,-4.3028,-4.3091,-4.3012,-4.3136,-4.315,-4.3195,-4.3345,-4.3412,-4.3363,-4.3651,-4.3559,-4.3575,-4.3581,-4.3663,-4.3695,-4.3723,-4.3352,-4.335,-4.3349,0,0,-4.2967,-4.2995,-4.3111,-4.3143,-4.3189,-4.3184,-4.3212,-4.3245,-4.3251,-4.3376,-4.3318,-4.3393,-4.3524,-4.3558,-4.3593,-4.3818,-4.3769,-4.3843,-4.3967,-4.4053,-4.4079,-4.4102,-4.418,-4.4209,-4.386,-4.386,-4.3861,0,-4.3076,-4.3204,-4.3176,-4.3276,-4.3317,-4.3249,-4.3365,-4.3398,-4.3465,-4.3494,-4.3439,-4.3602,-4.3628,-4.3783,-4.3838,-4.3869,-4.3899,-4.3837,-4.4078,-4.41,-4.4122,-4.4196,-4.4225,-4.3869,-4.3868,-4.3867,-4.3866,0,-4.3335,-4.3425,-4.3513,-4.3578,-4.363,-4.3738,-4.3725,-4.378,-4.3754,-4.3755,-4.3882,-4.3911,-4.3985,-4.4021,-4.3996,-4.4173,-4.4141,-4.4083,-4.3983,-4.4162,-4.4231,-4.426,-4.3881,-4.3878,-4.3875,-4.3873,0,0,-4.3623,-4.3673,-4.3705,-4.3733,-4.378,-4.3848,-4.3953,-4.4025,-4.4072,-4.4121,-4.4207,-4.432,-4.4266,-4.4306,-4.4284,-4.436,-4.4534,-4.4291,-4.4292,-4.4333,-4.4728,-4.477,-4.4803,-4.4503,-4.4508,-4.4512,-4.4723,0,-4.3835,-4.4016,-4.3993,-4.4166,-4.4248,-4.4185,-4.4276,-4.4314,-4.4318,-4.4387,-4.4391,-4.4471,-4.4395,-4.4418,-4.449,-4.4497,-4.4612,-4.4482,-4.458,-4.4584,-4.4568,-4.484,-4.4884,-4.5082,-4.4751,-4.4755,-4.4759,0,-4.4105,-4.4163,-4.4344,-4.4376,-4.4409,-4.4492,-4.4556,-4.4624,-4.4665,-4.4662,-4.4707,-4.4672,-4.4776,-4.4676,-4.4818,-4.473,-4.4769,-4.4779,-4.4786,-4.4792,-4.468,-4.485,-4.5145,-4.5173,-4.4801,-4.4798,-4.4795,0,-4.4294,-4.4418,-4.4541,-4.4568,-4.461,-4.4668,-4.4688,-4.4724,-4.4769,-4.4825,-4.4854,-4.4922,-4.4959,-4.5012,-4.4996,-4.4926,-4.5141,-4.5041,-4.5141,-4.5141,-4.5186,-4.5183,-4.5489,-4.5217,-4.5217,-4.5216,-4.5215,0,-4.453,-4.4643,-4.4626,-4.4702,-4.4826,-4.48,-4.4923,-4.4935,-4.4968,-4.5044,-4.4996,-4.5068,-4.5044,-4.5116,-4.5104,-4.5222,-4.524,-4.524,-4.5235,-4.5243,-4.5242,-4.5266,-4.525,-4.5224,-4.5222,-4.5221,-4.5219,0,-4.4761,-4.4755,-4.4885,-4.4914,-4.4924,-4.5014,-4.5038,-4.5109,-4.511,-4.5207,-4.5228,-4.5229,-4.5311,-4.5301,-4.5393,-4.5384,-4.5531,-4.5511,-4.5516,-4.5511,-4.561,-4.56,-4.5938,-4.5981,-4.5685,-4.5688,-4.569,0,-4.4911,-4.4996,-4.5034,-4.5081,-4.5106,-4.5184,-4.5229,-4.5207,-4.5256,-4.5309,-4.5374,-4.5451,-4.5511,-4.5644,-4.5653,-4.5722,-4.5701,-4.5816,-4.5711,-4.5716,-4.57,-4.5694,-4.5701,-4.5835,-4.5838,-4.5841,-4.5843,0,-4.5176,-4.5169,-4.5236,-4.5303,-4.5358,-4.541,-4.5456,-4.5498,-4.548,-4.5538,-4.562,-4.5667,-4.576,-4.5837,-4.5903,-4.5922,-4.588,-4.5877,-4.5903,-4.591,-4.5908,-4.5908,-4.5569,-4.5868,-4.5866,-4.5864,-4.5863,-4.5862,-4.5369,-4.5441,-4.5479,-4.5555,-4.5588,-4.5632,-4.5699,-4.5709,-4.5777,-4.5851,-4.5834,-4.5927,-4.5966,-4.6049,-4.6076,-4.6148,-4.6106,-4.6145,-4.6154,-4.6163,-4.6173,-4.59,-4.616,-4.616,-4.6159,-4.6158,-4.6158,0,-4.5629,-4.5651,-4.5721,-4.5787,-4.5848,-4.5804,-4.5852,-4.5905,-4.5987,-4.6027,-4.6088,-4.6182,-4.6256,-4.6271,-4.6342,-4.6396,-4.6378,-4.6415,-4.6409,-4.6414,-4.6208,-4.6177,-4.6428,-4.6428,-4.6428,-4.6428,-4.6428,-4.6428,-4.5772,-4.589,-4.5888,-4.6022,-4.6042,-4.6132,-4.6164,-4.6204,-4.6236,-4.6343,-4.6405,-4.6414,-4.6444,-4.6516,-4.6582,-4.6584,-4.6611,-4.6655,-4.665,-4.6456,-4.6429,-4.6403,-4.6374,-4.6662,-4.6662,-4.6849,-4.6851,-4.6852]},{"header":{"parameterUnit":"m.s-1","parameterCategory":1,"la1":30.2991,"la2":30.254,"lo1":-89.0895,"lo2":-89.0444,"dy":0.0017,"dx":0.0017,"nx":28,"ny":28,"refTime":"2023-09-26T03:00:00:Z","depth":0,"parameterNumber":3,"parameterNumberName":"V-component_of_WINDS"},"data":[0,0,0,0,0,0,0,0,0,0,0,0,0,0,0,0,0,0,0,0,0,0,0,0,0,0,0,0,0,0,0,0,0,0,0,0,0,0,0,0,0,0,0,0,0,0,0,0,0,0,0,0,0,0,0,0,0,0,-1.0384,-1.0384,0,-1.0335,-1.0335,-1.0334,-1.0323,-1.0324,-1.0324,-1.0324,-1.0272,-1.027,-1.0268,0,0,0,0,0,0,0,0,0,0,0,0,0,-1.0464,-1.0463,-1.0384,-1.0384,-1.0383,-1.0335,-1.0335,-1.0334,-1.0323,-1.0324,-1.0324,-1.0324,-1.0272,-1.027,-1.0268,0,0,0,0,0,0,0,0,0,0,0,0,0,-1.0424,-1.0462,-1.0384,-1.0372,-1.037,-1.0335,-1.0335,-1.0334,-1.0323,-1.0324,-1.0324,-1.0325,-1.0273,-1.027,-1.0268,-1.0241,0,0,-1.026,-1.0259,0,0,0,0,0,0,0,0,-1.0426,-1.0421,-1.0374,-1.0373,-1.0371,-1.0336,-1.0344,-1.0303,-1.0323,-1.0341,-1.0324,-1.0325,-1.0293,-1.0288,-1.0278,-1.0239,-1.0237,-1.026,-1.0258,-1.0257,-1.0256,0,0,0,0,0,0,0,-1.0429,-1.0423,-1.0365,-1.0374,-1.0371,-1.0367,-1.0362,-1.0336,-1.0314,-1.0339,-1.0338,-1.0333,-1.0292,-1.028,-1.0277,-1.0236,-1.026,-1.0258,-1.0256,-1.0255,-1.0169,-1.0168,0,0,0,0,0,0,-1.0434,-1.0425,-1.0366,-1.0363,-1.04,-1.0365,-1.036,-1.0347,-1.0315,-1.031,-1.0333,-1.0333,-1.0285,-1.028,-1.0275,-1.0239,-1.0257,-1.0255,-1.0253,-1.017,-1.0169,-1.0168,0,0,0,0,0,0,-1.0436,-1.0429,-1.0368,-1.0394,-1.0386,-1.0364,-1.0349,-1.0345,-1.0334,-1.0309,-1.0305,-1.0325,-1.0285,-1.0278,-1.0249,-1.0238,-1.0254,-1.0251,-1.0171,-1.0169,-1.0168,-1.017,0,0,0,0,0,0,-1.0438,-1.043,-1.0421,-1.0394,-1.0385,-1.0345,-1.0348,-1.0344,-1.033,-1.033,-1.0302,-1.0297,-1.0285,-1.0253,-1.0247,-1.0234,-1.0249,-1.0171,-1.017,-1.0169,-1.0171,-1.0169,-1.0168,0,0,0,0,0,-1.0441,-1.0424,-1.042,-1.0413,-1.0373,-1.0344,-1.0339,-1.0326,-1.0329,-1.0319,-1.0302,-1.0298,-1.024,-1.025,-1.0243,-1.023,-1.0172,-1.017,-1.0169,-1.0172,-1.017,-1.0168,0,0,0,0,0,0,-1.045,-1.042,-1.0416,-1.0389,-1.0369,-1.0343,-1.033,-1.0324,-1.0302,-1.0303,-1.0286,-1.028,-1.0251,-1.0237,-1.0249,-1.02,-1.0206,-1.0203,-1.0211,-1.0208,-1.0207,-1.021,-1.0247,0,0,0,0,0,-1.0449,-1.0429,-1.0403,-1.0382,-1.0372,-1.0353,-1.034,-1.0331,-1.0309,-1.0301,-1.0282,-1.0261,-1.0237,-1.0222,-1.0199,-1.0169,-1.0161,-1.0156,-1.0154,-1.0153,-1.015,-1.013,-1.0127,-1.0163,-1.0163,-1.0163,0,0,-1.0446,-1.0427,-1.0416,-1.0383,-1.0367,-1.0345,-1.0346,-1.0324,-1.0307,-1.0297,-1.0268,-1.0253,-1.0228,-1.0197,-1.0183,-1.0185,-1.0138,-1.0151,-1.015,-1.0148,-1.0128,-1.0125,-1.0122,-1.0161,-1.0162,-1.0162,0,0,-1.043,-1.0414,-1.0394,-1.0377,-1.0352,-1.0338,-1.0333,-1.0306,-1.0296,-1.0267,-1.0258,-1.0237,-1.0198,-1.0179,-1.0164,-1.0138,-1.0132,-1.013,-1.0122,-1.0103,-1.01,-1.0097,-1.0086,-1.0082,-1.0128,-1.0128,-1.0128,0,-1.043,-1.0398,-1.0384,-1.0361,-1.0346,-1.0336,-1.0313,-1.0297,-1.0266,-1.0255,-1.0258,-1.0206,-1.0188,-1.0152,-1.0145,-1.0134,-1.0126,-1.0134,-1.0101,-1.0099,-1.0096,-1.0085,-1.0081,-1.0128,-1.0128,-1.0128,-1.0128,0,-1.0398,-1.0375,-1.0361,-1.0331,-1.0314,-1.0292,-1.0273,-1.0257,-1.0249,-1.0234,-1.0202,-1.018,-1.0152,-1.0142,-1.0134,-1.0104,-1.0105,-1.0105,-1.011,-1.0093,-1.0082,-1.0077,-1.0128,-1.0128,-1.0128,-1.0128,0,0,-1.0388,-1.0347,-1.0343,-1.0327,-1.0297,-1.0279,-1.0255,-1.0227,-1.0213,-1.019,-1.0168,-1.0134,-1.0132,-1.0115,-1.0105,-1.0088,-1.0065,-1.0089,-1.0088,-1.0084,-1.0027,-1.0027,-1.0023,-1.0061,-1.006,-1.006,-1.0029,0,-1.0367,-1.0325,-1.031,-1.0274,-1.0252,-1.024,-1.0219,-1.0197,-1.0182,-1.0159,-1.0142,-1.0117,-1.0118,-1.0108,-1.0091,-1.0072,-1.0053,-1.0074,-1.0039,-1.0038,-1.0045,-1.0017,-1.0018,-0.999,-1.0024,-1.0024,-1.0023,0,-1.0338,-1.0315,-1.0277,-1.0247,-1.0237,-1.0218,-1.0189,-1.0169,-1.0143,-1.0132,-1.0112,-1.0102,-1.0074,-1.008,-1.004,-1.0054,-1.0039,-1.0027,-1.0025,-1.0021,-1.0029,-1.0011,-0.9981,-0.9976,-1.0017,-1.0017,-1.0018,0,-1.0333,-1.0292,-1.0263,-1.025,-1.0215,-1.0202,-1.0186,-1.016,-1.0143,-1.0118,-1.0106,-1.0078,-1.0062,-1.0039,-1.002,-1.0027,-0.9981,-0.9986,-0.997,-0.997,-0.9961,-0.9962,-0.9927,-0.9952,-0.9952,-0.9952,-0.9952,0,-1.0311,-1.0288,-1.026,-1.0242,-1.0215,-1.0196,-1.017,-1.0153,-1.013,-1.0107,-1.0095,-1.0073,-1.005,-1.0025,-1.001,-0.9978,-0.9971,-0.9961,-0.9957,-0.9961,-0.9963,-0.9951,-0.9952,-0.9951,-0.9951,-0.9952,-0.9952,0,-1.0301,-1.0281,-1.0249,-1.0217,-1.0209,-1.019,-1.0162,-1.0143,-1.0126,-1.0098,-1.009,-1.0063,-1.0033,-1.0012,-0.9973,-0.9963,-0.9927,-0.9924,-0.9936,-0.9934,-0.9918,-0.9919,-0.9874,-0.9866,-0.9898,-0.9897,-0.9897,0,-1.0288,-1.027,-1.0236,-1.022,-1.0204,-1.0179,-1.0161,-1.0141,-1.0123,-1.0089,-1.0074,-1.0043,-1.0017,-0.9968,-0.9944,-0.9914,-0.9909,-0.9895,-0.9904,-0.9909,-0.9907,-0.9908,-0.9905,-0.9894,-0.9893,-0.9893,-0.9893,0,-1.0267,-1.0258,-1.0233,-1.0204,-1.0183,-1.0159,-1.0135,-1.0122,-1.0097,-1.0077,-1.0045,-1.0025,-0.9984,-0.9952,-0.9919,-0.9901,-0.9892,-0.989,-0.9884,-0.9889,-0.9896,-0.989,-0.9931,-0.9891,-0.9892,-0.9892,-0.9892,-0.9892,-1.0255,-1.0237,-1.0209,-1.0181,-1.016,-1.0137,-1.0117,-1.0097,-1.0071,-1.0037,-1.0026,-0.9993,-0.9963,-0.9917,-0.9898,-0.9871,-0.9872,-0.9864,-0.9862,-0.986,-0.9859,-0.99,-0.9865,-0.9865,-0.9865,-0.9865,-0.9865,0,-1.0232,-1.0213,-1.0187,-1.0153,-1.013,-1.0124,-1.0095,-1.0076,-1.0047,-1.0021,-0.9995,-0.9957,-0.9925,-0.9898,-0.9865,-0.9848,-0.9842,-0.9839,-0.984,-0.9835,-0.9861,-0.9869,-0.9844,-0.9844,-0.9844,-0.9844,-0.9844,-0.9844,-1.0218,-1.0186,-1.0173,-1.013,-1.011,-1.0078,-1.0062,-1.004,-1.0018,-0.9977,-0.995,-0.9933,-0.9905,-0.9869,-0.9838,-0.9831,-0.9818,-0.9816,-0.9807,-0.9832,-0.9834,-0.9836,-0.9843,-0.9814,-0.9814,-0.9784,-0.9784,-0.9784]}]]